Погода в Таловке

Россия / Кемеровская область (Кузбасс)     55°57′46″N   85°50′06″E
темп.,
°C
ветер,
м/с
пор.,
м/с
влажн.,
%
обл.,
%
осадки,
мм/ч
давл.,
гПа
погр.,
м
18 мая, вт
вт1801:00+9ю258898 0.0 101191
04:00+10ю31093100 0.0 1007189
07:00+11ю4898100 7.9 1003228
10:00+14з4993100 1.5 10021050
13:00+15с3580100 1.9 1004862
16:00+16ссв3368100 0.1 10051007
19:00+11ссв358897 0.1 1007390
22:00+8всв3791100 0.0 1008373
19 мая, ср
ср1901:00+8св3890100 0.0 1007414
04:00+7св41094100 0.8 1006510
07:00+6ссв4993100 1.6 1006424
10:00+9св58500 0.0 1008827
13:00+12ссв5739100 0.0 10082037
16:00+11с4739100 0.0 10092335
19:00+9с563994 0.0 10112101
22:00+4с3105115 0.0 1013430
20 мая, чт
чт2001:00+1ссз28665 0.0 1013193
04:00−1ссз27715 0.0 1013152
07:00+1с386087 0.0 1014406
10:00+4с455397 0.4 10151652
13:00+6с4637100 1.2 10152481
16:00+7с5633100 0.0 10162294
19:00+6ссз4756100 0.3 10171542
22:00+3ссз267394 0.1 1019314
21 мая, пт
пт2101:00+2ссв31094100 1.5 1020592
04:000сз229798 0.1 102156
07:00+2сз258369 0.1 1023167
10:00+8с36540 0.0 1024807
13:00+13сз333164 0.0 10232156
16:00+14сз3426100 0.0 10232403
19:00+12зсз3535100 0.0 10241560
22:00+7юз2754100 0.0 1025136
22 мая, сб
сб2201:00+7юз41055100 0.0 1024356
04:00+7юз41156100 0.0 1023397
07:00+7зюз61160100 0.0 10221125
10:00+5юз71594100 2.6 1020888
13:00+5юз61394100 4.3 1019924
16:00+6юз51094100 0.2 1019567
19:00+6юз4995100 0.4 1019354
22:00+6ююз379870 0.1 1020169